Погода в Зэрнешти

Румыния     45°33′31″N   25°18′51″E
темп.,
°C
ветер,
м/с
пор.,
м/с
влажн.,
%
обл.,
%
осадки,
мм/ч
давл.,
гПа
погр.,
м
19 апреля, пн
пн1900:000ю239494 0.0 1019163
03:00−1ююз129839 0.1 101872
06:00−1ююз129666 0.0 101759
09:00+2св1184100 0.0 1016398
12:00+4всв1178100 0.1 1015768
15:00+5вюв0172100 0.3 1013920
18:00+3всв1187100 0.3 1012482
21:00+1ссв11100100 4.3 1014191
20 апреля, вт
вт2000:00+1ссз11100100 2.4 1013115
03:00+1с1299100 2.5 1012194
06:00+1с2399100 0.6 1011291
09:00+2с2399100 1.5 1012214
12:00+2с2299100 0.9 1013235
15:00+4ссв128698 1.4 1012632
18:00+4ссв2286100 0.6 1012490
21:000ссз1198100 0.9 101520
21 апреля, ср
ср2100:00+1ссз129551 0.0 101564
03:000ссз129771 0.0 101684
06:00+1с129484 0.0 101673
09:00+3ссв228991 0.1 1017488
12:00+5ссв117787 0.3 1017775
15:00+7ссв117289 2.1 1016938
18:00+6св0177100 3.4 1016498
21:00+1зюз119446 4.8 101912
22 апреля, чт
чт2200:000зюз11955 0.0 102115
03:00−1з11945 0.0 102114
06:00−1з11945 0.0 102116
09:00+6ссв11765 0.0 1019426
12:00+9св115995 0.1 10181415
15:00+10юз126477 1.2 10171180
18:00+9юз256528 1.4 10161346
21:00+3ююз338973 1.7 102041
23 апреля, пт
пт2300:00+3ююз339146 0.1 101949
03:00+3ююз348932 0.1 101954
06:00+3ююз3491100 0.0 101865
09:00+8ююз3674100 0.1 1015719
12:00+10ююз3656100 0.3 10151719
15:00+10юз2463100 1.0 10141234
18:00+6ссв2293100 2.0 1016340
21:00+2с3499100 5.4 1020223